| time (UTC) | temp C | wind direction | speed KPH | gust KPH | rain 1hr cm | rain 24hr cm | rain mn cm | humidity % | barometer mb |
| 20260831225724 | 35 | 159 | 3.2 | 11.3 | 0.00 | 0.00 | 0.00 | 45 | 1014.4 |
| 20260831225222 | 35 | 163 | 4.8 | 11.3 | 0.00 | 0.00 | 0.00 | 45 | 1014.3 |
| 20260831224722 | 35 | 146 | 3.2 | 9.7 | 0.00 | 0.00 | 0.00 | 45 | 1014.4 |
| 20260831224217 | 35 | 119 | 1.6 | 8.0 | 0.00 | 0.00 | 0.00 | 45 | 1014.3 |
| 20260831223717 | 35 | 132 | 1.6 | 6.4 | 0.00 | 0.00 | 0.00 | 45 | 1014.4 |
| 20260831223218 | 35 | 132 | 1.6 | 6.4 | 0.00 | 0.00 | 0.00 | 45 | 1014.5 |
| 20260831222718 | 35 | 133 | 1.6 | 12.9 | 0.00 | 0.00 | 0.00 | 47 | 1014.5 |
| 20260831222218 | 35 | 132 | 3.2 | 12.9 | 0.00 | 0.00 | 0.00 | 46 | 1014.5 |
| 20260831221718 | 35 | 132 | 3.2 | 12.9 | 0.00 | 0.00 | 0.00 | 45 | 1014.5 |
| 20260831221218 | 35 | 113 | 3.2 | 12.9 | 0.00 | 0.00 | 0.00 | 45 | 1014.5 |
| 20260831220717 | 35 | 78 | 3.2 | 12.9 | 0.00 | 0.00 | 0.00 | 45 | 1014.5 |
| 20260831220217 | 35 | 133 | 4.8 | 16.1 | 0.00 | 0.00 | 0.00 | 45 | 1014.7 |
| 20260831215718 | 35 | 161 | 4.8 | 16.1 | 0.00 | 0.00 | 0.00 | 43 | 1014.9 |
| 20260831215215 | 36 | 115 | 3.2 | 11.3 | 0.00 | 0.00 | 0.00 | 44 | 1014.8 |
| 20260831214716 | 36 | 109 | 3.2 | 12.9 | 0.00 | 0.00 | 0.00 | 44 | 1015.0 |
| 20260831214216 | 35 | 182 | 4.8 | 12.9 | 0.00 | 0.00 | 0.00 | 44 | 1015.0 |
| 20260831213946 | 35 | 173 | 4.8 | 12.9 | 0.00 | 0.00 | 0.00 | 43 | 1015.2 |
| 20260831213446 | 35 | 150 | 3.2 | 11.3 | 0.00 | 0.00 | 0.00 | 43 | 1015.2 |
| 20260831212716 | 35 | 167 | 3.2 | 17.7 | 0.00 | 0.00 | 0.00 | 44 | 1015.3 |
| 20260831212447 | 35 | 201 | 3.2 | 17.7 | 0.00 | 0.00 | 0.00 | 46 | 1015.3 |
| 20260831211716 | 35 | 92 | 3.2 | 14.5 | 0.00 | 0.00 | 0.00 | 46 | 1015.4 |
| 20260831211217 | 35 | 115 | 3.2 | 14.5 | 0.00 | 0.00 | 0.00 | 46 | 1015.5 |
| 20260831210711 | 34 | 210 | 3.2 | 9.7 | 0.00 | 0.00 | 0.00 | 46 | 1015.5 |
| 20260831210205 | 34 | 69 | 3.2 | 11.3 | 0.00 | 0.00 | 0.00 | 48 | 1015.6 |
| 20260831205931 | 34 | 136 | 3.2 | 11.3 | 0.00 | 0.00 | 0.00 | 47 | 1015.7 |
| 20260831205426 | 35 | 90 | 4.8 | 17.7 | 0.00 | 0.00 | 0.00 | 48 | 1015.8 |
| 20260831204647 | 35 | 51 | 4.8 | 17.7 | 0.00 | 0.00 | 0.00 | 48 | 1015.9 |
| 20260831204413 | 35 | 146 | 3.2 | 12.9 | 0.00 | 0.00 | 0.00 | 47 | 1015.9 |
| 20260831203635 | 35 | 142 | 4.8 | 14.5 | 0.00 | 0.00 | 0.00 | 48 | 1016.2 |
| 20260831203129 | 35 | 158 | 4.8 | 19.3 | 0.00 | 0.00 | 0.00 | 48 | 1016.2 |
| 20260831202623 | 35 | 145 | 4.8 | 16.1 | 0.00 | 0.00 | 0.00 | 48 | 1016.3 |
| 20260831202118 | 35 | 173 | 4.8 | 19.3 | 0.00 | 0.00 | 0.00 | 48 | 1016.3 |
| 20260831201612 | 35 | 98 | 3.2 | 19.3 | 0.00 | 0.00 | 0.00 | 48 | 1016.4 |
| 20260831201105 | 35 | 88 | 3.2 | 16.1 | 0.00 | 0.00 | 0.00 | 49 | 1016.4 |
| 20260831200600 | 35 | 104 | 3.2 | 14.5 | 0.00 | 0.00 | 0.00 | 48 | 1016.5 |
| 20260831200054 | 34 | 155 | 3.2 | 14.5 | 0.00 | 0.00 | 0.00 | 48 | 1016.7 |
| 20260831195548 | 34 | 94 | 3.2 | 12.9 | 0.00 | 0.00 | 0.00 | 49 | 1016.8 |
| 20260831195312 | 34 | 86 | 4.8 | 12.9 | 0.00 | 0.00 | 0.00 | 51 | 1016.9 |
| 20260831194535 | 34 | 162 | 4.8 | 17.7 | 0.00 | 0.00 | 0.00 | 51 | 1016.9 |
| 20260831194029 | 34 | 94 | 4.8 | 17.7 | 0.00 | 0.00 | 0.00 | 50 | 1017.0 |
| 20260831193523 | 34 | 181 | 3.2 | 12.9 | 0.00 | 0.00 | 0.00 | 51 | 1017.0 |
| 20260831193249 | 34 | 119 | 3.2 | 14.5 | 0.00 | 0.00 | 0.00 | 52 | 1017.1 |
| 20260831192512 | 34 | 157 | 3.2 | 16.1 | 0.00 | 0.00 | 0.00 | 51 | 1017.1 |
| 20260831192236 | 34 | 99 | 4.8 | 16.1 | 0.00 | 0.00 | 0.00 | 52 | 1017.3 |
| 20260831191459 | 34 | 157 | 3.2 | 11.3 | 0.00 | 0.00 | 0.00 | 52 | 1017.3 |
| 20260831190954 | 35 | 49 | 3.2 | 11.3 | 0.00 | 0.00 | 0.00 | 51 | 1017.3 |
| 20260831190448 | 34 | 171 | 3.2 | 9.7 | 0.00 | 0.00 | 0.00 | 50 | 1017.3 |
| 20260831185941 | 34 | 248 | 3.2 | 9.7 | 0.00 | 0.00 | 0.00 | 52 | 1017.4 |
| 20260831185707 | 34 | 194 | 3.2 | 11.3 | 0.00 | 0.00 | 0.00 | 52 | 1017.5 |
| 20260831184929 | 33 | 127 | 1.6 | 11.3 | 0.00 | 0.00 | 0.00 | 54 | 1017.6 |
| 20260831184423 | 33 | 153 | 3.2 | 14.5 | 0.00 | 0.00 | 0.00 | 53 | 1017.6 |
| 20260831183917 | 33 | 255 | 4.8 | 17.7 | 0.00 | 0.00 | 0.00 | 55 | 1017.7 |
| 20260831183411 | 33 | 158 | 3.2 | 17.7 | 0.00 | 0.00 | 0.00 | 54 | 1017.8 |
| 20260831183138 | 33 | 173 | 3.2 | 14.5 | 0.00 | 0.00 | 0.00 | 53 | 1017.8 |
| 20260831182400 | 33 | 209 | 3.2 | 14.5 | 0.00 | 0.00 | 0.00 | 54 | 1017.9 |
| 20260831182124 | 32 | 173 | 3.2 | 8.0 | 0.00 | 0.00 | 0.00 | 57 | 1017.9 |
| 20260831181348 | 32 | 88 | 3.2 | 12.9 | 0.00 | 0.00 | 0.00 | 58 | 1017.9 |
| 20260831180842 | 32 | 150 | 3.2 | 12.9 | 0.00 | 0.00 | 0.00 | 59 | 1018.1 |
| 20260831180611 | 32 | 131 | 3.2 | 12.9 | 0.00 | 0.00 | 0.00 | 58 | 1018.2 |
| 20260831175830 | 32 | 171 | 3.2 | 14.5 | 0.00 | 0.00 | 0.00 | 58 | 1018.1 |
| 20260831175324 | 32 | 203 | 4.8 | 19.3 | 0.00 | 0.00 | 0.00 | 59 | 1018.2 |
| 20260831174817 | 32 | 186 | 4.8 | 19.3 | 0.00 | 0.00 | 0.00 | 58 | 1018.4 |
| 20260831174311 | 32 | 88 | 4.8 | 12.9 | 0.00 | 0.00 | 0.00 | 61 | 1018.3 |
| 20260831173805 | 32 | 128 | 4.8 | 12.9 | 0.00 | 0.00 | 0.00 | 62 | 1018.3 |
| 20260831172753 | 32 | 213 | 3.2 | 11.3 | 0.00 | 0.00 | 0.00 | 64 | 1018.4 |
| 20260831171741 | 31 | 187 | 3.2 | 11.3 | 0.00 | 0.00 | 0.00 | 64 | 1018.4 |
| 20260831171235 | 31 | 76 | 3.2 | 11.3 | 0.00 | 0.00 | 0.00 | 64 | 1018.4 |
| 20260831171000 | 31 | 186 | 3.2 | 11.3 | 0.00 | 0.00 | 0.00 | 64 | 1018.4 |
| 20260831165717 | 31 | 241 | 3.2 | 11.3 | 0.00 | 0.00 | 0.00 | 65 | 1018.6 |
| 20260831165212 | 31 | 159 | 3.2 | 12.9 | 0.00 | 0.00 | 0.00 | 64 | 1018.6 |
| 20260831164706 | 31 | 165 | 3.2 | 12.9 | 0.00 | 0.00 | 0.00 | 65 | 1018.6 |
| 20260831164159 | 31 | 122 | 3.2 | 14.5 | 0.00 | 0.00 | 0.00 | 65 | 1018.6 |
| 20260831163924 | 31 | 155 | 4.8 | 16.1 | 0.00 | 0.00 | 0.00 | 66 | 1018.5 |
| 20260831163147 | 31 | 166 | 4.8 | 16.1 | 0.00 | 0.00 | 0.00 | 67 | 1018.6 |
| 20260831162641 | 31 | 82 | 3.2 | 12.9 | 0.00 | 0.00 | 0.00 | 68 | 1018.6 |
| 20260831162136 | 31 | 269 | 3.2 | 12.9 | 0.00 | 0.00 | 0.00 | 67 | 1018.7 |
| 20260831161629 | 30 | 113 | 3.2 | 11.3 | 0.00 | 0.00 | 0.00 | 69 | 1018.6 |
| 20260831161124 | 30 | 98 | 3.2 | 12.9 | 0.00 | 0.00 | 0.00 | 68 | 1018.6 |
| 20260831160618 | 30 | 157 | 3.2 | 12.9 | 0.00 | 0.00 | 0.00 | 69 | 1018.5 |
| 20260831160117 | 30 | 55 | 3.2 | 11.3 | 0.00 | 0.00 | 0.00 | 69 | 1018.5 |
| 20260831155849 | 30 | 188 | 3.2 | 11.3 | 0.00 | 0.00 | 0.00 | 70 | 1018.5 |
| 20260831155117 | 30 | 175 | 1.6 | 11.3 | 0.00 | 0.00 | 0.00 | 70 | 1018.5 |
| 20260831154849 | 30 | 164 | 1.6 | 11.3 | 0.00 | 0.00 | 0.00 | 72 | 1018.6 |
| 20260831154117 | 30 | 153 | 3.2 | 11.3 | 0.00 | 0.00 | 0.00 | 72 | 1018.5 |
| 20260831153847 | 30 | 163 | 4.8 | 14.5 | 0.00 | 0.00 | 0.00 | 71 | 1018.6 |
| 20260831153117 | 30 | 178 | 3.2 | 14.5 | 0.00 | 0.00 | 0.00 | 72 | 1018.4 |
| 20260831152848 | 30 | 129 | 1.6 | 9.7 | 0.00 | 0.00 | 0.00 | 73 | 1018.4 |
| 20260831152117 | 30 | 193 | 1.6 | 8.0 | 0.00 | 0.00 | 0.00 | 73 | 1018.4 |
| 20260831151617 | 29 | 144 | 1.6 | 11.3 | 0.00 | 0.00 | 0.00 | 74 | 1018.3 |
| 20260831151115 | 29 | 94 | 3.2 | 12.9 | 0.00 | 0.00 | 0.00 | 74 | 1018.4 |
| 20260831150845 | 29 | 155 | 3.2 | 12.9 | 0.00 | 0.00 | 0.00 | 74 | 1018.4 |
| 20260831150111 | 29 | 192 | 3.2 | 11.3 | 0.00 | 0.00 | 0.00 | 74 | 1018.3 |
| 20260831145611 | 28 | 159 | 1.6 | 9.7 | 0.00 | 0.00 | 0.00 | 76 | 1018.3 |
| 20260831145111 | 28 | 247 | 3.2 | 9.7 | 0.00 | 0.00 | 0.00 | 77 | 1018.3 |
| 20260831144610 | 28 | 221 | 3.2 | 11.3 | 0.00 | 0.00 | 0.00 | 78 | 1018.3 |
| 20260831144111 | 27 | 163 | 3.2 | 11.3 | 0.00 | 0.00 | 0.00 | 79 | 1018.4 |
| 20260831143610 | 27 | 169 | 3.2 | 9.7 | 0.00 | 0.00 | 0.00 | 80 | 1018.4 |
| 20260831143110 | 27 | 169 | 1.6 | 9.7 | 0.00 | 0.00 | 0.00 | 81 | 1018.3 |
| 20260831142610 | 27 | 169 | 1.6 | 9.7 | 0.00 | 0.00 | 0.00 | 81 | 1018.3 |
| 20260831142111 | 27 | 190 | 1.6 | 8.0 | 0.00 | 0.00 | 0.00 | 82 | 1018.2 |
| 20260831141609 | 27 | 172 | 1.6 | 8.0 | 0.00 | 0.00 | 0.00 | 82 | 1018.3 |
| 20260831141109 | 26 | 171 | 1.6 | 9.7 | 0.00 | 0.00 | 0.00 | 83 | 1018.2 |
| 20260831140609 | 26 | 169 | 1.6 | 9.7 | 0.00 | 0.00 | 0.00 | 84 | 1018.1 |
| 20260831140339 | 26 | 168 | 1.6 | 8.0 | 0.00 | 0.00 | 0.00 | 85 | 1017.9 |
| 20260831135840 | 26 | 155 | 1.6 | 8.0 | 0.00 | 0.00 | 0.00 | 86 | 1018.1 |
| 20260831135109 | 26 | 153 | 1.6 | 8.0 | 0.00 | 0.00 | 0.00 | 87 | 1018.1 |
| 20260831134837 | 26 | 153 | 1.6 | 9.7 | 0.00 | 0.00 | 0.00 | 87 | 1018.1 |
| 20260831134107 | 26 | 152 | 1.6 | 9.7 | 0.00 | 0.00 | 0.00 | 87 | 1018.1 |
| 20260831133835 | 26 | 152 | 1.6 | 8.0 | 0.00 | 0.00 | 0.00 | 87 | 1017.9 |
| 20260831133105 | 26 | 148 | 1.6 | 8.0 | 0.00 | 0.00 | 0.00 | 88 | 1017.9 |
| 20260831132607 | 26 | 148 | 1.6 | 6.4 | 0.00 | 0.00 | 0.00 | 88 | 1017.8 |
| 20260831132106 | 26 | 148 | 1.6 | 4.8 | 0.00 | 0.00 | 0.00 | 88 | 1017.8 |
| 20260831131602 | 25 | 148 | 0.0 | 4.8 | 0.00 | 0.00 | 0.00 | 88 | 1017.8 |
| 20260831131055 | 25 | 148 | 0.0 | 4.8 | 0.00 | 0.00 | 0.00 | 88 | 1017.8 |
| 20260831130549 | 25 | 148 | 0.0 | 4.8 | 0.00 | 0.00 | 0.00 | 89 | 1017.8 |
| 20260831130043 | 25 | 148 | 0.0 | 4.8 | 0.00 | 0.00 | 0.00 | 89 | 1017.7 |
| 20260831125537 | 25 | 148 | 0.0 | 3.2 | 0.00 | 0.00 | 0.00 | 89 | 1017.7 |
| 20260831125030 | 25 | 148 | 1.6 | 4.8 | 0.00 | 0.00 | 0.00 | 89 | 1017.6 |
| 20260831124524 | 25 | 148 | 1.6 | 4.8 | 0.00 | 0.00 | 0.00 | 89 | 1017.6 |
| 20260831124019 | 25 | 147 | 1.6 | 6.4 | 0.00 | 0.00 | 0.00 | 89 | 1017.5 |
| 20260831123513 | 25 | 213 | 1.6 | 6.4 | 0.00 | 0.00 | 0.00 | 88 | 1017.4 |
| 20260831123237 | 25 | 213 | 1.6 | 4.8 | 0.00 | 0.00 | 0.00 | 88 | 1017.4 |
| 20260831122501 | 25 | 213 | 1.6 | 4.8 | 0.00 | 0.00 | 0.00 | 88 | 1017.4 |
| 20260831121955 | 25 | 213 | 1.6 | 4.8 | 0.00 | 0.00 | 0.00 | 88 | 1017.3 |
| 20260831121449 | 25 | 213 | 1.6 | 6.4 | 0.00 | 0.00 | 0.00 | 88 | 1017.3 |
| 20260831120942 | 25 | 213 | 1.6 | 6.4 | 0.00 | 0.00 | 0.00 | 88 | 1017.4 |
| 20260831120436 | 25 | 213 | 1.6 | 6.4 | 0.00 | 0.00 | 0.00 | 88 | 1017.3 |
| 20260831120201 | 25 | 213 | 1.6 | 6.4 | 0.00 | 0.00 | 0.00 | 88 | 1017.3 |
| 20260831115425 | 25 | 213 | 1.6 | 4.8 | 0.00 | 0.00 | 0.00 | 88 | 1017.2 |
| 20260831114919 | 25 | 213 | 1.6 | 6.4 | 0.00 | 0.00 | 0.00 | 88 | 1017.3 |
| 20260831114413 | 25 | 215 | 1.6 | 6.4 | 0.00 | 0.00 | 0.00 | 88 | 1017.3 |
| 20260831113907 | 25 | 219 | 1.6 | 6.4 | 0.00 | 0.00 | 0.00 | 88 | 1017.3 |
| 20260831113401 | 25 | 221 | 0.0 | 6.4 | 0.00 | 0.00 | 0.00 | 88 | 1017.1 |
| 20260831112854 | 25 | 223 | 1.6 | 6.4 | 0.00 | 0.00 | 0.00 | 88 | 1017.2 |
| 20260831112348 | 25 | 223 | 1.6 | 6.4 | 0.00 | 0.00 | 0.00 | 87 | 1017.2 |
| 20260831111843 | 25 | 223 | 0.0 | 6.4 | 0.00 | 0.00 | 0.00 | 87 | 1017.3 |
| 20260831111609 | 25 | 224 | 1.6 | 8.0 | 0.00 | 0.00 | 0.00 | 87 | 1017.2 |
| 20260831110830 | 25 | 227 | 3.2 | 8.0 | 0.00 | 0.00 | 0.00 | 87 | 1017.3 |
| 20260831110324 | 25 | 194 | 1.6 | 8.0 | 0.00 | 0.00 | 0.00 | 87 | 1017.3 |
| 20260831110051 | 25 | 196 | 1.6 | 4.8 | 0.00 | 0.00 | 0.00 | 87 | 1017.2 |
| 20260831105312 | 25 | 196 | 1.6 | 4.8 | 0.00 | 0.00 | 0.00 | 87 | 1017.4 |
| 20260831104806 | 25 | 194 | 1.6 | 8.0 | 0.00 | 0.00 | 0.00 | 87 | 1017.3 |
| 20260831104300 | 25 | 195 | 3.2 | 11.3 | 0.00 | 0.00 | 0.00 | 86 | 1017.4 |
| 20260831103754 | 25 | 170 | 3.2 | 11.3 | 0.00 | 0.00 | 0.00 | 86 | 1017.4 |
| 20260831103249 | 25 | 222 | 3.2 | 11.3 | 0.00 | 0.00 | 0.00 | 86 | 1017.3 |
| 20260831102743 | 25 | 184 | 3.2 | 11.3 | 0.00 | 0.00 | 0.00 | 86 | 1017.4 |
| 20260831102237 | 25 | 165 | 3.2 | 11.3 | 0.00 | 0.00 | 0.00 | 86 | 1017.4 |
| 20260831102001 | 25 | 159 | 3.2 | 11.3 | 0.00 | 0.00 | 0.00 | 86 | 1017.4 |
| 20260831101225 | 25 | 192 | 3.2 | 11.3 | 0.00 | 0.00 | 0.00 | 86 | 1017.4 |
| 20260831100216 | 25 | 180 | 1.6 | 11.3 | 0.00 | 0.00 | 0.00 | 86 | 1017.4 |
| 20260831095714 | 25 | 179 | 3.2 | 11.3 | 0.00 | 0.00 | 0.00 | 86 | 1017.4 |
| 20260831095214 | 25 | 155 | 3.2 | 16.1 | 0.00 | 0.00 | 0.00 | 86 | 1017.4 |
| 20260831094714 | 25 | 169 | 3.2 | 16.1 | 0.00 | 0.00 | 0.00 | 86 | 1017.4 |
| 20260831094444 | 25 | 150 | 3.2 | 14.5 | 0.00 | 0.00 | 0.00 | 86 | 1017.4 |
| 20260831093714 | 25 | 226 | 3.2 | 12.9 | 0.00 | 0.00 | 0.00 | 86 | 1017.4 |
| 20260831093214 | 25 | 229 | 4.8 | 12.9 | 0.00 | 0.00 | 0.00 | 86 | 1017.3 |
| 20260831092714 | 25 | 194 | 3.2 | 14.5 | 0.00 | 0.00 | 0.00 | 86 | 1017.3 |
| 20260831092444 | 25 | 169 | 3.2 | 14.5 | 0.00 | 0.00 | 0.00 | 86 | 1017.3 |
| 20260831091717 | 25 | 197 | 3.2 | 14.5 | 0.00 | 0.00 | 0.00 | 86 | 1017.3 |
| 20260831091214 | 25 | 207 | 3.2 | 14.5 | 0.00 | 0.00 | 0.00 | 86 | 1017.3 |
| 20260831090714 | 25 | 162 | 3.2 | 11.3 | 0.00 | 0.00 | 0.00 | 86 | 1017.3 |
| 20260831090214 | 25 | 162 | 4.8 | 14.5 | 0.00 | 0.00 | 0.00 | 86 | 1017.3 |
| 20260831085714 | 25 | 164 | 3.2 | 14.5 | 0.00 | 0.00 | 0.00 | 86 | 1017.3 |
| 20260831085212 | 25 | 145 | 3.2 | 11.3 | 0.00 | 0.00 | 0.00 | 86 | 1017.3 |
| 20260831084710 | 25 | 225 | 3.2 | 11.3 | 0.00 | 0.00 | 0.00 | 86 | 1017.3 |
| 20260831084210 | 25 | 179 | 3.2 | 9.7 | 0.00 | 0.00 | 0.00 | 86 | 1017.4 |
| 20260831083706 | 25 | 179 | 3.2 | 9.7 | 0.00 | 0.00 | 0.00 | 86 | 1017.3 |
| 20260831083205 | 25 | 186 | 3.2 | 11.3 | 0.00 | 0.00 | 0.00 | 86 | 1017.3 |
| 20260831082705 | 25 | 233 | 3.2 | 11.3 | 0.00 | 0.00 | 0.00 | 86 | 1017.4 |
| 20260831082206 | 25 | 161 | 1.6 | 11.3 | 0.00 | 0.00 | 0.00 | 86 | 1017.4 |
| 20260831081706 | 25 | 167 | 1.6 | 11.3 | 0.00 | 0.00 | 0.00 | 86 | 1017.4 |
| 20260831081206 | 25 | 155 | 3.2 | 11.3 | 0.00 | 0.00 | 0.00 | 86 | 1017.4 |
| 20260831080706 | 25 | 274 | 3.2 | 11.3 | 0.00 | 0.00 | 0.00 | 86 | 1017.5 |
| 20260831080437 | 25 | 159 | 1.6 | 9.7 | 0.00 | 0.00 | 0.00 | 85 | 1017.4 |
| 20260831075705 | 25 | 159 | 1.6 | 9.7 | 0.00 | 0.00 | 0.00 | 85 | 1017.5 |
| 20260831075202 | 25 | 159 | 3.2 | 9.7 | 0.00 | 0.00 | 0.00 | 85 | 1017.5 |
| 20260831074702 | 25 | 159 | 3.2 | 9.7 | 0.00 | 0.00 | 0.00 | 85 | 1017.5 |
| 20260831074433 | 25 | 169 | 3.2 | 11.3 | 0.00 | 0.00 | 0.00 | 84 | 1017.5 |
| 20260831073702 | 25 | 171 | 3.2 | 11.3 | 0.00 | 0.00 | 0.00 | 84 | 1017.5 |
| 20260831073202 | 26 | 178 | 3.2 | 8.0 | 0.00 | 0.00 | 0.00 | 84 | 1017.5 |
| 20260831072933 | 26 | 168 | 3.2 | 9.7 | 0.00 | 0.00 | 0.00 | 83 | 1017.6 |
| 20260831072202 | 26 | 167 | 3.2 | 9.7 | 0.00 | 0.00 | 0.00 | 83 | 1017.6 |
| 20260831071933 | 26 | 165 | 3.2 | 9.7 | 0.00 | 0.00 | 0.00 | 83 | 1017.5 |
| 20260831071200 | 26 | 163 | 1.6 | 9.7 | 0.00 | 0.00 | 0.00 | 83 | 1017.6 |
| 20260831070701 | 26 | 164 | 1.6 | 9.7 | 0.00 | 0.00 | 0.00 | 82 | 1017.6 |
| 20260831070155 | 26 | 164 | 1.6 | 8.0 | 0.00 | 0.00 | 0.00 | 82 | 1017.5 |
| 20260831065649 | 26 | 163 | 1.6 | 16.1 | 0.00 | 0.00 | 0.00 | 82 | 1017.6 |
| 20260831065144 | 26 | 164 | 3.2 | 16.1 | 0.00 | 0.00 | 0.00 | 81 | 1017.6 |
| 20260831064638 | 26 | 153 | 3.2 | 12.9 | 0.00 | 0.00 | 0.00 | 81 | 1017.6 |
| 20260831064132 | 26 | 159 | 3.2 | 9.7 | 0.00 | 0.00 | 0.00 | 80 | 1017.6 |
| 20260831063625 | 26 | 178 | 3.2 | 9.7 | 0.00 | 0.00 | 0.00 | 80 | 1017.7 |
| 20260831063352 | 26 | 164 | 3.2 | 12.9 | 0.00 | 0.00 | 0.00 | 80 | 1017.6 |
| 20260831062613 | 26 | 159 | 3.2 | 12.9 | 0.00 | 0.00 | 0.00 | 79 | 1017.6 |
| 20260831062107 | 26 | 173 | 3.2 | 12.9 | 0.00 | 0.00 | 0.00 | 79 | 1017.5 |
| 20260831061601 | 26 | 171 | 1.6 | 12.9 | 0.00 | 0.00 | 0.00 | 79 | 1017.7 |
| 20260831061056 | 26 | 218 | 1.6 | 11.3 | 0.00 | 0.00 | 0.00 | 78 | 1017.5 |
| 20260831060044 | 26 | 144 | 1.6 | 12.9 | 0.00 | 0.00 | 0.00 | 77 | 1017.5 |
| 20260831055538 | 27 | 98 | 1.6 | 12.9 | 0.00 | 0.00 | 0.00 | 76 | 1017.5 |
| 20260831055031 | 27 | 154 | 3.2 | 9.7 | 0.00 | 0.00 | 0.00 | 76 | 1017.6 |
| 20260831054526 | 27 | 162 | 3.2 | 14.5 | 0.00 | 0.00 | 0.00 | 76 | 1017.6 |
| 20260831054250 | 27 | 157 | 3.2 | 14.5 | 0.00 | 0.00 | 0.00 | 75 | 1017.5 |
| 20260831053514 | 27 | 167 | 3.2 | 16.1 | 0.00 | 0.00 | 0.00 | 74 | 1017.4 |
| 20260831053007 | 27 | 144 | 4.8 | 16.1 | 0.00 | 0.00 | 0.00 | 73 | 1017.4 |
| 20260831052501 | 27 | 102 | 3.2 | 12.9 | 0.00 | 0.00 | 0.00 | 72 | 1017.3 |
| 20260831052227 | 27 | 158 | 3.2 | 14.5 | 0.00 | 0.00 | 0.00 | 72 | 1017.3 |
| 20260831051449 | 27 | 149 | 3.2 | 14.5 | 0.00 | 0.00 | 0.00 | 71 | 1017.2 |
| 20260831050437 | 27 | 165 | 1.6 | 9.7 | 0.00 | 0.00 | 0.00 | 69 | 1017.3 |
| 20260831045932 | 28 | 152 | 1.6 | 9.7 | 0.00 | 0.00 | 0.00 | 68 | 1017.3 |
| 20260831045430 | 28 | 151 | 3.2 | 11.3 | 0.00 | 0.00 | 0.00 | 68 | 1017.2 |
| 20260831044930 | 28 | 134 | 3.2 | 11.3 | 0.00 | 0.00 | 0.00 | 67 | 1017.1 |
| 20260831044429 | 28 | 116 | 3.2 | 16.1 | 0.00 | 0.00 | 0.00 | 67 | 1017.1 |
| 20260831044159 | 28 | 136 | 3.2 | 16.1 | 0.00 | 0.00 | 0.00 | 67 | 1017.1 |
| 20260831043427 | 28 | 159 | 4.8 | 16.1 | 0.00 | 0.00 | 0.00 | 66 | 1017.1 |
| 20260831042926 | 28 | 196 | 6.4 | 16.1 | 0.00 | 0.00 | 0.00 | 66 | 1017.2 |
| 20260831042427 | 28 | 174 | 4.8 | 16.1 | 0.00 | 0.00 | 0.00 | 66 | 1017.1 |
| 20260831042158 | 28 | 164 | 6.4 | 20.9 | 0.00 | 0.00 | 0.00 | 66 | 1017.0 |
| 20260831041426 | 28 | 168 | 6.4 | 20.9 | 0.00 | 0.00 | 0.00 | 66 | 1016.9 |
| 20260831041157 | 29 | 121 | 4.8 | 12.9 | 0.00 | 0.00 | 0.00 | 65 | 1017.0 |
| 20260831040426 | 29 | 74 | 3.2 | 14.5 | 0.00 | 0.00 | 0.00 | 64 | 1016.9 |
| 20260831035927 | 29 | 121 | 4.8 | 14.5 | 0.00 | 0.00 | 0.00 | 64 | 1016.7 |
| 20260831035427 | 29 | 144 | 4.8 | 12.9 | 0.00 | 0.00 | 0.00 | 64 | 1016.6 |
| 20260831034926 | 29 | 146 | 4.8 | 11.3 | 0.00 | 0.00 | 0.00 | 63 | 1016.6 |
| 20260831034426 | 29 | 123 | 3.2 | 14.5 | 0.00 | 0.00 | 0.00 | 63 | 1016.6 |
| 20260831033926 | 29 | 127 | 3.2 | 14.5 | 0.00 | 0.00 | 0.00 | 63 | 1016.6 |
| 20260831033427 | 30 | 128 | 3.2 | 9.7 | 0.00 | 0.00 | 0.00 | 63 | 1016.6 |
| 20260831032925 | 30 | 115 | 3.2 | 19.3 | 0.00 | 0.00 | 0.00 | 63 | 1016.5 |
| 20260831032420 | 30 | 182 | 4.8 | 19.3 | 0.00 | 0.00 | 0.00 | 63 | 1016.5 |
| 20260831031914 | 30 | 163 | 4.8 | 16.1 | 0.00 | 0.00 | 0.00 | 63 | 1016.5 |
| 20260831031407 | 30 | 125 | 4.8 | 11.3 | 0.00 | 0.00 | 0.00 | 63 | 1016.5 |
| 20260831030902 | 30 | 125 | 3.2 | 14.5 | 0.00 | 0.00 | 0.00 | 63 | 1016.3 |
| 20260831030635 | 30 | 165 | 3.2 | 14.5 | 0.00 | 0.00 | 0.00 | 63 | 1016.2 |
| 20260831025853 | 30 | 175 | 3.2 | 14.5 | 0.00 | 0.00 | 0.00 | 63 | 1016.2 |
| 20260831025353 | 30 | 176 | 3.2 | 14.5 | 0.00 | 0.00 | 0.00 | 63 | 1016.1 |
| 20260831024853 | 30 | 138 | 3.2 | 14.5 | 0.00 | 0.00 | 0.00 | 62 | 1016.0 |
| 20260831024352 | 30 | 133 | 3.2 | 9.7 | 0.00 | 0.00 | 0.00 | 63 | 1015.9 |
| 20260831023852 | 30 | 152 | 4.8 | 12.9 | 0.00 | 0.00 | 0.00 | 62 | 1015.8 |
| 20260831023351 | 31 | 167 | 4.8 | 16.1 | 0.00 | 0.00 | 0.00 | 62 | 1015.9 |
| 20260831022848 | 31 | 111 | 4.8 | 16.1 | 0.00 | 0.00 | 0.00 | 62 | 1015.7 |
| 20260831022349 | 31 | 105 | 3.2 | 14.5 | 0.00 | 0.00 | 0.00 | 62 | 1015.4 |
| 20260831021848 | 31 | 128 | 3.2 | 11.3 | 0.00 | 0.00 | 0.00 | 61 | 1015.3 |
| 20260831021347 | 31 | 131 | 3.2 | 11.3 | 0.00 | 0.00 | 0.00 | 61 | 1015.0 |
| 20260831020849 | 31 | 137 | 3.2 | 16.1 | 0.00 | 0.00 | 0.00 | 60 | 1015.0 |
| 20260831020346 | 31 | 185 | 3.2 | 16.1 | 0.00 | 0.00 | 0.00 | 60 | 1014.9 |
| 20260831015846 | 31 | 101 | 3.2 | 14.5 | 0.00 | 0.00 | 0.00 | 59 | 1014.9 |
| 20260831015618 | 31 | 154 | 3.2 | 12.9 | 0.00 | 0.00 | 0.00 | 59 | 1014.8 |
| 20260831014847 | 31 | 123 | 4.8 | 14.5 | 0.00 | 0.00 | 0.00 | 59 | 1014.8 |
| 20260831014345 | 31 | 128 | 4.8 | 14.5 | 0.00 | 0.00 | 0.00 | 58 | 1014.7 |
| 20260831013843 | 31 | 132 | 4.8 | 14.5 | 0.00 | 0.00 | 0.00 | 58 | 1014.6 |
| 20260831013338 | 31 | 157 | 3.2 | 12.9 | 0.00 | 0.00 | 0.00 | 57 | 1014.6 |
| 20260831012831 | 31 | 128 | 1.6 | 12.9 | 0.00 | 0.00 | 0.00 | 56 | 1014.4 |
| 20260831012327 | 31 | 107 | 0.0 | 6.4 | 0.00 | 0.00 | 0.00 | 54 | 1014.3 |
| 20260831011820 | 32 | 164 | 0.0 | 0.0 | 0.00 | 0.00 | 0.00 | 53 | 1014.3 |
| 20260831011314 | 32 | 164 | 0.0 | 0.0 | 0.00 | 0.00 | 0.00 | 53 | 1014.3 |
| 20260831010808 | 32 | 164 | 0.0 | 0.0 | 0.00 | 0.00 | 0.00 | 52 | 1014.3 |
| 20260831010303 | 32 | 164 | 0.0 | 0.0 | 0.00 | 0.00 | 0.00 | 52 | 1014.2 |
| 20260831005756 | 32 | 164 | 0.0 | 0.0 | 0.00 | 0.00 | 0.00 | 52 | 1014.2 |
| 20260831005250 | 32 | 164 | 0.0 | 0.0 | 0.00 | 0.00 | 0.00 | 51 | 1014.2 |
| 20260831004744 | 33 | 164 | 0.0 | 0.0 | 0.00 | 0.00 | 0.00 | 50 | 1014.1 |
| 20260831004238 | 33 | 164 | 0.0 | 1.6 | 0.00 | 0.00 | 0.00 | 50 | 1014.1 |
| 20260831003732 | 33 | 164 | 0.0 | 1.6 | 0.00 | 0.00 | 0.00 | 49 | 1014.0 |
| 20260831003226 | 33 | 164 | 0.0 | 8.0 | 0.00 | 0.00 | 0.00 | 49 | 1014.0 |
| 20260831002719 | 33 | 164 | 1.6 | 8.0 | 0.00 | 0.00 | 0.00 | 49 | 1014.0 |
| 20260831002214 | 33 | 164 | 1.6 | 8.0 | 0.00 | 0.00 | 0.00 | 48 | 1014.0 |
| 20260831001708 | 33 | 164 | 1.6 | 8.0 | 0.00 | 0.00 | 0.00 | 48 | 1014.0 |
| 20260831001432 | 33 | 165 | 1.6 | 11.3 | 0.00 | 0.00 | 0.00 | 47 | 1014.0 |
| 20260831000656 | 33 | 164 | 3.2 | 11.3 | 0.00 | 0.00 | 0.00 | 47 | 1014.0 |
| 20260831000150 | 34 | 132 | 3.2 | 8.0 | 0.00 | 0.00 | 0.00 | 46 | 1014.0 |
| 20260830235644 | 34 | 128 | 3.2 | 11.3 | 0.00 | 0.00 | 0.00 | 45 | 1014.0 |
| 20260830235138 | 34 | 162 | 3.2 | 11.3 | 0.00 | 0.00 | 0.00 | 46 | 1014.0 |
| 20260830234903 | 34 | 168 | 1.6 | 11.3 | 0.00 | 0.00 | 0.00 | 45 | 1014.1 |
| 20260830234125 | 34 | 128 | 3.2 | 14.5 | 0.00 | 0.00 | 0.00 | 46 | 1014.1 |
| 20260830233620 | 34 | 87 | 3.2 | 14.5 | 0.00 | 0.00 | 0.00 | 45 | 1014.2 |
| 20260830233114 | 34 | 146 | 3.2 | 14.5 | 0.00 | 0.00 | 0.00 | 45 | 1014.0 |
| 20260830232608 | 34 | 120 | 4.8 | 16.1 | 0.00 | 0.00 | 0.00 | 45 | 1014.1 |
| 20260830232334 | 35 | 136 | 3.2 | 16.1 | 0.00 | 0.00 | 0.00 | 45 | 1014.1 |
| 20260830231556 | 35 | 172 | 1.6 | 11.3 | 0.00 | 0.00 | 0.00 | 45 | 1014.1 |
| 20260830231049 | 35 | 146 | 1.6 | 8.0 | 0.00 | 0.00 | 0.00 | 47 | 1014.1 |
| 20260830230544 | 35 | 157 | 3.2 | 9.7 | 0.00 | 0.00 | 0.00 | 46 | 1014.1 |
| 20260830230038 | 35 | 100 | 4.8 | 11.3 | 0.00 | 0.00 | 0.00 | 46 | 1014.1 |